Regional Weather Roundup
Issued by NWS

Home | Current Version | Previous Version | Graphics & Text | Print | Product List | Glossary On
Versions: 1 2 3 4 5 6 7 8 9 10 11 12 13 14 15 16 17 18 19 20 21 22 23 24 25 26 27 28 29 30 31 32 33 34 35 36 37 38 39 40 41 42 43 44 45 46 47 48 49 50
348
ASUS43 KLOT 180503
RWRIL

ILLINOIS REGIONAL WEATHER ROUNDUP
NATIONAL WEATHER SERVICE CHICAGO/ROMEOVILLE IL
1100 PM CST WED JAN 17 2018

NOTE: "FAIR" INDICATES FEW OR NO CLOUDS BELOW 12,000 FEET WITH NO
SIGNIFICANT WEATHER AND/OR OBSTRUCTIONS TO VISIBILITY.

* THESE STATIONS ARE NOT UNDER NWS QUALITY CONTROL. THEY ALSO MAY NOT
  REPORT WEATHER SUCH AS PRECIPITATION OR FOG.

ILZ001-002-007-009-015-016-024-180600-
NORTHWEST ILLINOIS

CITY           SKY/WX    TMP DP  RH WIND       PRES   REMARKS
MOLINE         FAIR      19  11  70 SW17      30.28F WCI   4
STERLING*      FAIR      15  10  80 SW10      30.26F WCI   2
SAVANNA*       FAIR      19  10  70 SW14      30.25F WCI   5
$$

ILZ003-004-008-010-011-017-018-180600-
NORTH CENTRAL ILLINOIS

CITY           SKY/WX    TMP DP  RH WIND       PRES   REMARKS
ROCKFORD       FAIR      17   9  70 SW9       30.23F WCI   6
FREEPORT*      FAIR      17  10  73 SW20G29   30.21F WCI   1
ROCHELLE*      FAIR      15  10  81 SW17      30.24F WCI  -1
DE KALB*       FAIR      17  10  74 SW24G30   30.21F WCI  -1
PERU*          FAIR      17   9  70 SW20G29   30.29F WCI   0
$$

ILZ005-006-012>014-019>023-180600-
NORTHEAST ILLINOIS

CITY           SKY/WX    TMP DP  RH WIND       PRES   REMARKS
CHICAGO-OHARE  FAIR      18   9  68 SW21G31   30.21F WCI   1
CHICAGO-MIDWAY FAIR      19  10  68 SW22G31   30.23F WCI   2
AURORA         FAIR      16   9  74 SW15      30.25F WCI   1
LANSING*       FAIR      17  11  78 SW16G22   30.27F WCI   1
JOLIET*        FAIR      19  11  71 SW12      30.29F WCI   6
WAUKEGAN       FAIR      18   9  68 SW14G29   30.13F WCI   4
DUPAGE AIRPORT FAIR      15  10  80 SW18G28   30.23F WCI  -2
KANKAKEE*      FAIR      16   8  72 SW16      30.33F WCI   0
WHEELING       FAIR      18  10  71 SW16G22   30.21F WCI   3
MORRIS*        FAIR      16   9  72 SW13      30.28F WCI   2
ROMEOVILLE*    FAIR      16  10  75 SW14G22   30.27F WCI   2
NORTHERLY ISL    N/A     18   9  68 W15         N/A  WCI   4
$$

LMZ740>746-180600-
SOUTHERN LAKE MICHIGAN

STATION/POSITION SKY/WX   TEMP    WIND        PRES    VSBY  WAVE
                          AIR SEA DIR/SP/G                  HT/PER
                          (F)     (DEG/KT/KT) (MB)    (MI)  (FT/S)
HARRISON CRIB              21     240/ 23/ 27   N/A
BURNHAM HARBOR             18     240/ 15/ 23   N/A
CALUMET HARBOR             18     220/ 13/ 20 1023.5F
BURNS HARBOR               17     230/ 17/ 23 1025.1F
MICHIGAN CITY              17     210/ 20/ 24   N/A
$$

ILZ025>027-034>036-040-047-049-050-058-095>099-180600-
WEST-CENTRAL ILLINOIS

CITY           SKY/WX    TMP DP  RH WIND       PRES   REMARKS
QUINCY         CLOUDY    17   8  67 SW16      30.39F WCI   2
GALESBURG*     FAIR      16  10  79 SW12      30.32F WCI   3
MACOMB*        CLEAR     18  11  75 SW22      30.36F WCI   0
JACKSONVILLE*  CLOUDY    16   8  70 SW10      30.41F WCI   4
PITTSFIELD*    CLOUDY    17   9  70 SW7       30.43F WCI   8
$$

ILZ028>032-037-038-041>044-048-051>054-059>061-180600-
CENTRAL ILLINOIS

CITY           SKY/WX    TMP DP  RH WIND       PRES   REMARKS
PONTIAC        FAIR      17  11  78 SW17      30.33S WCI   1
BLOOMINGTON    FAIR      15   9  76 SW20      30.33F WCI  -2
DECATUR        FAIR      17   9  70 SW17G24   30.39F WCI   1
PEORIA         FAIR      18   9  68 SW16      30.35F WCI   3
LACON*         FAIR      17   9  71 SW13      30.31F WCI   4
LINCOLN*       FAIR      17  10  74 SW7       30.39F WCI   8
SPRINGFIELD    FAIR      19   9  65 SW12      30.42F WCI   7
TAYLORVILLE    FAIR      17   8  68 SW13      30.43F WCI   3
$$

ILZ033-039-045-046-055>057-062-063-180600-
EAST-CENTRAL ILLINOIS

CITY           SKY/WX    TMP DP  RH WIND       PRES   REMARKS
CHAMPAIGN      FAIR      14   8  77 SW20      30.37F WCI  -3
DANVILLE*      FAIR      14   8  77 SW15      30.34F WCI  -2
RANTOUL*       FAIR      16  10  78 SW14      30.35F WCI   1
MATTOON        FAIR      14   9  80 SW10      30.40F WCI   1
PARIS*         FAIR      12   8  84 SW10      30.41F WCI  -2
$$

ILZ079-100>102-180600-
SOUTHWEST ILLINOIS

CITY           SKY/WX    TMP DP  RH WIND       PRES   REMARKS
ALTON          CLOUDY    18  11  73 SW8       30.47F WCI   8
BELLEVILLE     CLOUDY    16   7  68 S5        30.48F WCI   9
CAHOKIA*       CLOUDY    20   8  60 SW5       30.49F WCI  13
SPARTA*        CLOUDY    17  13  85 S8        30.52F WCI   6
$$

ILZ064>066-069>071-074>076-080>082-084>086-088>090-092>094-180600-
SOUTH-CENTRAL ILLINOIS

CITY           SKY/WX    TMP DP  RH WIND       PRES   REMARKS
CARBONDALE     FAIR      13   8  81 SW8       30.54F WCI   2
CAIRO*         FAIR       9   6  87 S3        30.58F
EFFINGHAM*     FAIR      16  10  77 S7        30.47F WCI   6
MARION         FAIR      13   7  75 SW6       30.54F WCI   4
MT. VERNON     FAIR      11   6  81 SW7       30.51F WCI   0
CENTRALIA*     CLOUDY    17  11  79 CALM      30.48F
SALEM*         FAIR      18  10  73 SW10      30.48F WCI   6
METROPOLIS*    FAIR       9   7  89 CALM      30.58F
$$

ILZ067-068-072-073-078-083-087-091-180600-
SOUTHEAST ILLINOIS

CITY           SKY/WX    TMP DP  RH WIND       PRES   REMARKS
LAWRENCEVILLE  FAIR       1  -3  83 S8        30.50F WCI -13
FLORA*         FAIR      15   8  75 SW9       30.49F WCI   3
FAIRFIELD*     FAIR      11   6  79 CALM      30.50F
HARRISBURG*    FAIR      11   6  80 SW6       30.54F WCI   2
ROBINSON*      FAIR      11   5  79 S7        30.48F WCI   0
CARMI*         FAIR      13   7  78 SW12      30.53F WCI  -1
$$

ABBREVIATIONS USED IN REMARKS
   TC - TEMPERATURE IN CELSIUS
  WCI - WIND CHILL INDEX
   HX - HEAT INDEX
  VSB - VISIBILITY
$$





USA.gov is the U.S. government's official web portal to all federal, state and local government web resources and services.